Rome, NY
on Saturday, December 9, 2017

Saturday
       
Previous Day Next Day
Daily Summary
 ActualAverageRecord
Temperature
Mean Temperature °F °C °F °C  
Max Temperature 32°F 0°C 37°F 2°C 62°F 16°C (1966)
Min Temperature 19°F -7°C 21°F -6°C -6°F -21°C (1992)
Degree Days
Heating Degree Days 40    
Moisture
Dew Point 18°F -8°C   
Average Humidity 72    
Maximum Humidity 92    
Minimum Humidity 56    
Precipitation
Precipitation 0.00 in / 0.00 cm in / cm in / cm ()
Wind
Wind Speed 3 mph / 5 km/h   
Max Wind Speed 6 mph / 10 km/h   
Max Gust Speed mph / km/h   
Visibility 10 miles / 16 kilometers   
Events     
Averages and records for this station are not official NWS values.
Key: T is trace of precipitation, MM is missing value
Source: NWS Daily Summary
Seasonal Weather Averages
Time(EST)TemperatureDew PointHumidity Pressure Visibility Wind DirectionWind SpeedGust SpeedPrecipitationEvents Conditions
12:53 AM 21.0°F -6.1°C 16.0°F -8.9°C 81% 29.95 in / 1014.2 hPa 10.0 miles / 16.1 kilometers Calm Calm - N/A   Clear
1:53 AM 21.0°F -6.1°C 16.0°F -8.9°C 81% 29.96 in / 1014.6 hPa 10.0 miles / 16.1 kilometers Calm Calm - N/A   Clear
2:53 AM 21.0°F -6.1°C 17.1°F -8.3°C 85% 29.97 in / 1014.9 hPa 10.0 miles / 16.1 kilometers Calm Calm - N/A   Clear
3:53 AM 24.1°F -4.4°C 16.0°F -8.9°C 71% 29.96 in / 1014.5 hPa 10.0 miles / 16.1 kilometers East 3.5 mph / 5.6 km/h - N/A   Clear
4:53 AM 21.9°F -5.6°C 16.0°F -8.9°C 78% 29.96 in / 1014.5 hPa 10.0 miles / 16.1 kilometers SE 3.5 mph / 5.6 km/h - N/A   Clear
5:53 AM 21.9°F -5.6°C 17.1°F -8.3°C 82% 29.97 in / 1014.9 hPa 10.0 miles / 16.1 kilometers ESE 4.6 mph / 7.4 km/h - N/A   Clear
6:53 AM 24.1°F -4.4°C 17.1°F -8.3°C 75% 29.97 in / 1014.9 hPa 10.0 miles / 16.1 kilometers ESE 5.8 mph / 9.3 km/h - N/A   Clear
7:53 AM 24.1°F -4.4°C 17.1°F -8.3°C 75% 29.98 in / 1015.0 hPa 10.0 miles / 16.1 kilometers ESE 5.8 mph / 9.3 km/h - N/A   Clear
8:53 AM 26.1°F -3.3°C 18.0°F -7.8°C 71% 29.96 in / 1014.6 hPa 10.0 miles / 16.1 kilometers ESE 5.8 mph / 9.3 km/h - N/A   Clear
9:53 AM 28.0°F -2.2°C 19.0°F -7.2°C 69% 29.94 in / 1013.8 hPa 10.0 miles / 16.1 kilometers East 5.8 mph / 9.3 km/h - N/A   Clear
10:53 AM 30.0°F -1.1°C 18.0°F -7.8°C 61% 29.92 in / 1013.1 hPa 10.0 miles / 16.1 kilometers SE 4.6 mph / 7.4 km/h - N/A   Clear
11:53 AM 30.9°F -0.6°C 19.0°F -7.2°C 61% 29.89 in / 1012.2 hPa 10.0 miles / 16.1 kilometers East 4.6 mph / 7.4 km/h - N/A   Clear
12:53 PM 32.0°F 0.0°C 19.0°F -7.2°C 59% 29.85 in / 1010.7 hPa 10.0 miles / 16.1 kilometers ESE 5.8 mph / 9.3 km/h - N/A   Clear
1:53 PM 32.0°F 0.0°C 19.0°F -7.2°C 59% 29.83 in / 1010.2 hPa 10.0 miles / 16.1 kilometers East 5.8 mph / 9.3 km/h - N/A   Mostly Cloudy
2:53 PM 32.0°F 0.0°C 18.0°F -7.8°C 56% 29.82 in / 1009.8 hPa 10.0 miles / 16.1 kilometers ESE 5.8 mph / 9.3 km/h - N/A   Clear
3:53 PM 30.9°F -0.6°C 18.0°F -7.8°C 59% 29.80 in / 1009.1 hPa 10.0 miles / 16.1 kilometers SSE 4.6 mph / 7.4 km/h - N/A   Clear
4:53 PM 30.0°F -1.1°C 18.0°F -7.8°C 61% 29.80 in / 1009.1 hPa 10.0 miles / 16.1 kilometers SE 5.8 mph / 9.3 km/h - N/A   Clear
5:53 PM 28.9°F -1.7°C 18.0°F -7.8°C 64% 29.79 in / 1008.7 hPa 10.0 miles / 16.1 kilometers ESE 5.8 mph / 9.3 km/h - N/A   Clear
6:53 PM 28.0°F -2.2°C 18.0°F -7.8°C 66% 29.79 in / 1008.7 hPa 10.0 miles / 16.1 kilometers East 3.5 mph / 5.6 km/h - N/A   Clear
7:53 PM 27.0°F -2.8°C 19.0°F -7.2°C 72% 29.78 in / 1008.3 hPa 10.0 miles / 16.1 kilometers SE 4.6 mph / 7.4 km/h - N/A   Clear
8:53 PM 26.1°F -3.3°C 21.0°F -6.1°C 81% 29.78 in / 1008.3 hPa 10.0 miles / 16.1 kilometers ESE 4.6 mph / 7.4 km/h - N/A   Clear
9:53 PM 25.0°F -3.9°C 19.9°F -6.7°C 81% 29.77 in / 1008.1 hPa 10.0 miles / 16.1 kilometers Calm Calm - N/A   Clear
10:53 PM 19.0°F -7.2°C 17.1°F -8.3°C 92% 29.77 in / 1008.0 hPa 10.0 miles / 16.1 kilometers Calm Calm - N/A   Clear
11:53 PM 19.9°F -6.7°C 18.0°F -7.8°C 92% 29.76 in / 1007.7 hPa 10.0 miles / 16.1 kilometers East 3.5 mph / 5.6 km/h - N/A   Clear